Time,TemperatureF,DewpointF,PressureIn,WindDirection,WindDirectionDegrees,WindSpeedMPH,WindSpeedGustMPH,Humidity,HourlyPrecipIn,Conditions,Clouds,dailyrainin,SoftwareType,DateUTC
2016-02-13 00:00:00,30.1,21.2,30.34,NW,309,10.0,13.0,69,0.00,,,0.07,Wunderground v.1.13,2016-02-13 05:00:00,
2016-02-13 00:06:00,29.9,21.3,30.34,NW,315,10.0,13.0,70,0.00,,,0.00,Wunderground v.1.13,2016-02-13 05:06:00,
2016-02-13 00:11:00,29.8,21.5,30.34,WNW,292,11.0,11.0,71,0.00,,,0.00,Wunderground v.1.13,2016-02-13 05:11:00,
2016-02-13 00:16:00,29.7,21.4,30.34,NW,316,10.0,16.0,71,0.00,,,0.00,Wunderground v.1.13,2016-02-13 05:16:00,
2016-02-13 00:22:00,29.6,21.7,30.35,WNW,297,11.0,16.0,72,0.00,,,0.00,Wunderground v.1.13,2016-02-13 05:22:00,
2016-02-13 00:27:00,29.4,21.5,30.34,WNW,300,12.0,13.0,72,0.00,,,0.00,Wunderground v.1.13,2016-02-13 05:27:00,
2016-02-13 00:32:00,29.3,21.4,30.35,NW,314,12.0,12.0,72,0.00,,,0.00,Wunderground v.1.13,2016-02-13 05:32:00,
2016-02-13 00:37:00,29.2,21.3,30.35,WNW,285,11.0,11.0,72,0.00,,,0.00,Wunderground v.1.13,2016-02-13 05:37:00,
2016-02-13 00:42:00,29.1,21.2,30.35,NW,313,10.0,11.0,72,0.00,,,0.00,Wunderground v.1.13,2016-02-13 05:42:00,
2016-02-13 00:48:00,29.0,21.1,30.35,WNW,290,8.0,11.0,72,0.00,,,0.00,Wunderground v.1.13,2016-02-13 05:48:00,
2016-02-13 00:53:00,28.8,20.6,30.35,NNW,331,8.0,14.0,71,0.00,,,0.00,Wunderground v.1.13,2016-02-13 05:53:00,
2016-02-13 00:58:00,28.8,19.9,30.35,NW,314,11.0,14.0,69,0.00,,,0.00,Wunderground v.1.13,2016-02-13 05:58:00,
2016-02-13 01:03:00,28.9,20.0,30.35,NW,320,11.0,12.0,69,0.00,,,0.00,Wunderground v.1.13,2016-02-13 06:03:00,
2016-02-13 01:09:00,28.9,19.7,30.35,NW,311,11.0,18.0,68,0.00,,,0.00,Wunderground v.1.13,2016-02-13 06:09:00,
2016-02-13 01:14:00,28.9,19.7,30.36,NW,317,14.0,17.0,68,0.00,,,0.00,Wunderground v.1.13,2016-02-13 06:14:00,
2016-02-13 01:24:00,28.7,19.8,30.36,NNE,28,9.0,13.0,69,0.00,,,0.00,Wunderground v.1.13,2016-02-13 06:24:00,
2016-02-13 01:29:00,28.5,20.3,30.36,NNE,26,8.0,11.0,71,0.00,,,0.00,Wunderground v.1.13,2016-02-13 06:29:00,
2016-02-13 01:35:00,28.1,20.2,30.36,NNW,339,10.0,10.0,72,0.00,,,0.00,Wunderground v.1.13,2016-02-13 06:35:00,
2016-02-13 01:41:00,27.9,20.0,30.36,North,355,8.0,11.0,72,0.00,,,0.00,Wunderground v.1.13,2016-02-13 06:41:00,
2016-02-13 01:46:00,27.8,20.3,30.36,NNW,333,8.0,11.0,73,0.00,,,0.00,Wunderground v.1.13,2016-02-13 06:46:00,
2016-02-13 01:51:00,27.7,20.2,30.37,North,355,9.0,11.0,73,0.00,,,0.00,Wunderground v.1.13,2016-02-13 06:51:00,
2016-02-13 01:57:00,27.6,20.1,30.37,North,355,11.0,12.0,73,0.00,,,0.00,Wunderground v.1.13,2016-02-13 06:57:00,
2016-02-13 02:02:00,27.5,20.0,30.37,NNW,343,11.0,17.0,73,0.00,,,0.00,Wunderground v.1.13,2016-02-13 07:02:00,
2016-02-13 02:08:00,27.4,19.6,30.37,NNW,331,12.0,16.0,72,0.00,,,0.00,Wunderground v.1.13,2016-02-13 07:08:00,
2016-02-13 02:13:00,27.4,19.6,30.37,NW,315,11.0,14.0,72,0.00,,,0.00,Wunderground v.1.13,2016-02-13 07:13:00,
2016-02-13 02:18:00,27.3,18.8,30.37,NW,313,9.0,15.0,70,0.00,,,0.00,Wunderground v.1.13,2016-02-13 07:18:00,
2016-02-13 02:23:00,27.2,18.4,30.37,North,360,10.0,13.0,69,0.00,,,0.00,Wunderground v.1.13,2016-02-13 07:23:00,
2016-02-13 02:29:00,27.0,17.5,30.38,NNW,344,11.0,15.0,67,0.00,,,0.00,Wunderground v.1.13,2016-02-13 07:29:00,
2016-02-13 02:34:00,26.9,16.7,30.38,NNW,336,12.0,18.0,65,0.00,,,0.00,Wunderground v.1.13,2016-02-13 07:34:00,
2016-02-13 02:39:00,26.7,16.5,30.38,NW,315,12.0,14.0,65,0.00,,,0.00,Wunderground v.1.13,2016-02-13 07:39:00,
2016-02-13 02:44:00,26.5,16.0,30.38,NNW,343,11.0,14.0,64,0.00,,,0.00,Wunderground v.1.13,2016-02-13 07:44:00,
2016-02-13 02:50:00,26.3,15.8,30.38,NNW,336,8.0,8.0,64,0.00,,,0.00,Wunderground v.1.13,2016-02-13 07:50:00,
2016-02-13 02:55:00,26.1,15.2,30.38,NNW,346,8.0,11.0,63,0.00,,,0.00,Wunderground v.1.13,2016-02-13 07:55:00,
2016-02-13 03:00:00,26.0,15.1,30.39,NNW,334,9.0,9.0,63,0.00,,,0.00,Wunderground v.1.13,2016-02-13 08:00:00,
2016-02-13 03:06:00,25.9,14.7,30.39,NNW,344,7.0,11.0,62,0.00,,,0.00,Wunderground v.1.13,2016-02-13 08:06:00,
2016-02-13 03:17:00,25.4,14.2,30.39,NNW,348,4.0,11.0,62,0.00,,,0.00,Wunderground v.1.13,2016-02-13 08:17:00,
2016-02-13 03:22:00,25.3,14.1,30.39,NNW,344,7.0,13.0,62,0.00,,,0.00,Wunderground v.1.13,2016-02-13 08:22:00,
2016-02-13 03:28:00,25.2,14.0,30.40,NNW,335,7.0,11.0,62,0.00,,,0.00,Wunderground v.1.13,2016-02-13 08:28:00,
2016-02-13 03:33:00,25.0,13.8,30.40,NNW,331,10.0,21.0,62,0.00,,,0.00,Wunderground v.1.13,2016-02-13 08:33:00,
2016-02-13 03:43:00,24.8,13.2,30.40,North,355,12.0,16.0,61,0.00,,,0.00,Wunderground v.1.13,2016-02-13 08:43:00,
2016-02-13 03:48:00,24.7,13.1,30.40,NNW,332,11.0,11.0,61,0.00,,,0.00,Wunderground v.1.13,2016-02-13 08:48:00,
2016-02-13 03:53:00,24.6,12.7,30.40,NNW,338,9.0,13.0,60,0.00,,,0.00,Wunderground v.1.13,2016-02-13 08:53:00,
2016-02-13 03:59:00,24.5,12.2,30.41,NNW,334,11.0,15.0,59,0.00,,,0.00,Wunderground v.1.13,2016-02-13 08:59:00,
2016-02-13 04:04:00,24.3,12.4,30.41,NNW,331,11.0,14.0,60,0.00,,,0.00,Wunderground v.1.13,2016-02-13 09:04:00,
2016-02-13 04:09:00,24.1,12.2,30.41,NNW,346,10.0,11.0,60,0.00,,,0.00,Wunderground v.1.13,2016-02-13 09:09:00,
2016-02-13 04:15:00,24.0,11.7,30.41,NNW,346,9.0,11.0,59,0.00,,,0.00,Wunderground v.1.13,2016-02-13 09:15:00,
2016-02-13 04:20:00,23.8,11.9,30.41,NW,320,9.0,9.0,60,0.00,,,0.00,Wunderground v.1.13,2016-02-13 09:20:00,
2016-02-13 04:25:00,23.6,11.7,30.41,NW,325,8.0,12.0,60,0.00,,,0.00,Wunderground v.1.13,2016-02-13 09:25:00,
2016-02-13 04:31:00,23.4,11.5,30.41,NNW,330,7.0,8.0,60,0.00,,,0.00,Wunderground v.1.13,2016-02-13 09:31:00,
2016-02-13 04:37:00,23.2,11.7,30.42,NNW,329,6.0,11.0,61,0.00,,,0.00,Wunderground v.1.13,2016-02-13 09:37:00,
2016-02-13 04:42:00,23.1,11.6,30.42,NNW,328,7.0,11.0,61,0.00,,,0.00,Wunderground v.1.13,2016-02-13 09:42:00,
2016-02-13 04:47:00,23.0,11.9,30.43,NW,312,6.0,11.0,62,0.00,,,0.00,Wunderground v.1.13,2016-02-13 09:47:00,
2016-02-13 04:52:00,22.9,12.2,30.43,NW,317,4.0,11.0,63,0.00,,,0.00,Wunderground v.1.13,2016-02-13 09:52:00,
2016-02-13 04:57:00,23.0,12.3,30.43,NW,315,6.0,11.0,63,0.00,,,0.00,Wunderground v.1.13,2016-02-13 09:57:00,
2016-02-13 05:03:00,23.2,12.8,30.43,NW,319,7.0,11.0,64,0.00,,,0.00,Wunderground v.1.13,2016-02-13 10:03:00,
2016-02-13 05:08:00,23.2,12.8,30.44,NW,317,6.0,11.0,64,0.00,,,0.00,Wunderground v.1.13,2016-02-13 10:08:00,
2016-02-13 05:13:00,23.1,12.7,30.44,NW,318,6.0,13.0,64,0.00,,,0.00,Wunderground v.1.13,2016-02-13 10:13:00,
2016-02-13 05:19:00,23.2,12.1,30.44,NNW,336,10.0,16.0,62,0.00,,,0.00,Wunderground v.1.13,2016-02-13 10:19:00,
2016-02-13 05:25:00,23.2,11.7,30.45,North,349,11.0,14.0,61,0.00,,,0.00,Wunderground v.1.13,2016-02-13 10:25:00,
2016-02-13 05:30:00,23.2,11.4,30.45,NNW,333,11.0,11.0,60,0.00,,,0.00,Wunderground v.1.13,2016-02-13 10:30:00,
2016-02-13 05:35:00,23.2,11.7,30.45,NNW,333,9.0,9.0,61,0.00,,,0.00,Wunderground v.1.13,2016-02-13 10:35:00,
2016-02-13 05:41:00,23.1,12.0,30.45,NW,320,6.0,11.0,62,0.00,,,0.00,Wunderground v.1.13,2016-02-13 10:41:00,
2016-02-13 05:46:00,23.0,11.9,30.45,NW,320,4.0,6.0,62,0.00,,,0.00,Wunderground v.1.13,2016-02-13 10:46:00,
2016-02-13 05:51:00,23.0,11.9,30.46,NW,322,4.0,9.0,62,0.00,,,0.00,Wunderground v.1.13,2016-02-13 10:51:00,
2016-02-13 05:56:00,22.9,11.8,30.46,NW,320,6.0,8.0,62,0.00,,,0.00,Wunderground v.1.13,2016-02-13 10:56:00,
2016-02-13 06:01:00,22.9,11.8,30.46,NNW,345,7.0,11.0,62,0.00,,,0.00,Wunderground v.1.13,2016-02-13 11:01:00,
2016-02-13 06:07:00,22.9,11.8,30.46,NW,304,7.0,11.0,62,0.00,,,0.00,Wunderground v.1.13,2016-02-13 11:07:00,
2016-02-13 06:13:00,22.8,11.7,30.46,NW,313,7.0,13.0,62,0.00,,,0.00,Wunderground v.1.13,2016-02-13 11:13:00,
2016-02-13 06:18:00,22.8,11.3,30.46,North,360,7.0,11.0,61,0.00,,,0.00,Wunderground v.1.13,2016-02-13 11:18:00,
2016-02-13 06:23:00,22.8,11.7,30.47,NW,323,6.0,11.0,62,0.00,,,0.00,Wunderground v.1.13,2016-02-13 11:23:00,
2016-02-13 06:29:00,22.7,11.3,30.47,NNW,347,7.0,11.0,61,0.00,,,0.00,Wunderground v.1.13,2016-02-13 11:29:00,
2016-02-13 06:35:00,22.7,10.9,30.47,NNW,342,7.0,7.0,60,0.00,,,0.00,Wunderground v.1.13,2016-02-13 11:35:00,
2016-02-13 06:40:00,22.6,11.2,30.47,NNW,348,6.0,11.0,61,0.00,,,0.00,Wunderground v.1.13,2016-02-13 11:40:00,
2016-02-13 06:45:00,22.5,11.1,30.48,NW,322,5.0,11.0,61,0.00,,,0.00,Wunderground v.1.13,2016-02-13 11:45:00,
2016-02-13 06:50:00,22.4,11.0,30.48,NNW,339,4.0,4.0,61,0.00,,,0.00,Wunderground v.1.13,2016-02-13 11:50:00,
2016-02-13 06:56:00,22.3,10.5,30.48,NNW,331,5.0,13.0,60,0.00,,,0.00,Wunderground v.1.13,2016-02-13 11:56:00,
2016-02-13 07:01:00,22.3,10.5,30.48,NNW,337,9.0,11.0,60,0.00,,,0.00,Wunderground v.1.13,2016-02-13 12:01:00,
2016-02-13 07:06:00,22.2,10.4,30.48,NNW,340,9.0,11.0,60,0.00,,,0.00,Wunderground v.1.13,2016-02-13 12:06:00,
2016-02-13 07:11:00,22.1,10.3,30.48,NW,322,7.0,12.0,60,0.00,,,0.00,Wunderground v.1.13,2016-02-13 12:11:00,
2016-02-13 07:17:00,22.0,10.2,30.49,NW,315,8.0,13.0,60,0.00,,,0.00,Wunderground v.1.13,2016-02-13 12:17:00,
2016-02-13 07:23:00,21.8,10.0,30.49,NNW,337,9.0,13.0,60,0.00,,,0.00,Wunderground v.1.13,2016-02-13 12:23:00,
2016-02-13 07:28:00,21.7,9.6,30.49,NW,324,9.0,11.0,59,0.00,,,0.00,Wunderground v.1.13,2016-02-13 12:28:00,
2016-02-13 07:33:00,21.6,9.8,30.49,NNW,332,9.0,11.0,60,0.00,,,0.00,Wunderground v.1.13,2016-02-13 12:33:00,
2016-02-13 07:38:00,21.4,9.7,30.49,NW,321,7.0,11.0,60,0.00,,,0.00,Wunderground v.1.13,2016-02-13 12:38:00,
2016-02-13 07:44:00,21.3,9.9,30.49,NNW,334,6.0,11.0,61,0.00,,,0.00,Wunderground v.1.13,2016-02-13 12:44:00,
2016-02-13 07:50:00,21.3,9.9,30.49,NNW,335,7.0,11.0,61,0.00,,,0.00,Wunderground v.1.13,2016-02-13 12:50:00,
2016-02-13 07:55:00,21.4,10.4,30.50,NNW,336,7.0,7.0,62,0.00,,,0.00,Wunderground v.1.13,2016-02-13 12:55:00,
2016-02-13 08:00:00,21.5,10.5,30.50,NNW,329,8.0,8.0,62,0.00,,,0.00,Wunderground v.1.13,2016-02-13 13:00:00,
2016-02-13 08:06:00,21.6,10.9,30.50,NNW,334,7.0,11.0,63,0.00,,,0.00,Wunderground v.1.13,2016-02-13 13:06:00,
2016-02-13 08:11:00,21.8,11.5,30.50,North,360,6.0,11.0,64,0.00,,,0.00,Wunderground v.1.13,2016-02-13 13:11:00,
2016-02-13 08:21:00,21.9,11.9,30.51,North,5,2.0,11.0,65,0.00,,,0.00,Wunderground v.1.13,2016-02-13 13:21:00,
2016-02-13 08:27:00,21.9,11.9,30.51,NE,36,3.0,11.0,65,0.00,,,0.00,Wunderground v.1.13,2016-02-13 13:27:00,
2016-02-13 08:32:00,22.1,12.1,30.51,North,355,5.0,11.0,65,0.00,,,0.00,Wunderground v.1.13,2016-02-13 13:32:00,
2016-02-13 08:38:00,22.4,12.1,30.52,NNE,28,4.0,11.0,64,0.00,,,0.00,Wunderground v.1.13,2016-02-13 13:38:00,
2016-02-13 08:43:00,22.5,11.8,30.52,NNE,22,4.0,11.0,63,0.00,,,0.00,Wunderground v.1.13,2016-02-13 13:43:00,
2016-02-13 08:49:00,22.4,11.3,30.52,NE,45,6.0,12.0,62,0.00,,,0.00,Wunderground v.1.13,2016-02-13 13:49:00,
2016-02-13 08:54:00,22.5,11.8,30.52,NNW,340,6.0,11.0,63,0.00,,,0.00,Wunderground v.1.13,2016-02-13 13:54:00,
2016-02-13 09:04:00,22.4,11.0,30.53,NNW,340,10.0,12.0,61,0.00,,,0.00,Wunderground v.1.13,2016-02-13 14:04:00,
2016-02-13 09:14:00,22.4,11.0,30.53,NW,326,10.0,13.0,61,0.00,,,0.00,Wunderground v.1.13,2016-02-13 14:14:00,
2016-02-13 09:20:00,22.0,10.2,30.53,NW,326,11.0,11.0,60,0.00,,,0.00,Wunderground v.1.13,2016-02-13 14:20:00,
2016-02-13 09:25:00,21.9,10.5,30.53,North,360,9.0,9.0,61,0.00,,,0.00,Wunderground v.1.13,2016-02-13 14:25:00,
2016-02-13 09:30:00,22.0,11.3,30.53,NNE,26,6.0,11.0,63,0.00,,,0.00,Wunderground v.1.13,2016-02-13 14:30:00,
2016-02-13 09:35:00,21.9,11.6,30.54,NE,36,5.0,11.0,64,0.00,,,0.00,Wunderground v.1.13,2016-02-13 14:35:00,
2016-02-13 09:40:00,21.7,11.7,30.54,NNE,24,5.0,11.0,65,0.00,,,0.00,Wunderground v.1.13,2016-02-13 14:40:00,
2016-02-13 09:46:00,21.6,11.6,30.54,NE,51,4.0,11.0,65,0.00,,,0.00,Wunderground v.1.13,2016-02-13 14:46:00,
2016-02-13 09:52:00,21.6,12.0,30.54,NE,45,4.0,11.0,66,0.00,,,0.00,Wunderground v.1.13,2016-02-13 14:52:00,
2016-02-13 09:57:00,21.5,11.9,30.55,North,5,4.0,11.0,66,0.00,,,0.00,Wunderground v.1.13,2016-02-13 14:57:00,
2016-02-13 10:02:00,22.1,12.8,30.54,North,5,2.0,11.0,67,0.00,,,0.00,Wunderground v.1.13,2016-02-13 15:02:00,
2016-02-13 10:08:00,23.0,13.7,30.55,North,355,2.0,11.0,67,0.00,,,0.00,Wunderground v.1.13,2016-02-13 15:08:00,
2016-02-13 10:13:00,23.0,13.0,30.55,NNW,336,4.0,11.0,65,0.00,,,0.00,Wunderground v.1.13,2016-02-13 15:13:00,
2016-02-13 10:18:00,22.8,12.8,30.55,NNE,22,5.0,11.0,65,0.00,,,0.00,Wunderground v.1.13,2016-02-13 15:18:00,
2016-02-13 10:23:00,22.2,12.6,30.55,NE,39,4.0,11.0,66,0.00,,,0.00,Wunderground v.1.13,2016-02-13 15:23:00,
2016-02-13 10:28:00,21.8,12.9,30.55,North,9,4.0,11.0,68,0.00,,,0.00,Wunderground v.1.13,2016-02-13 15:28:00,
2016-02-13 10:34:00,21.5,12.2,30.56,North,9,3.0,11.0,67,0.00,,,0.00,Wunderground v.1.13,2016-02-13 15:34:00,
2016-02-13 10:39:00,21.4,12.1,30.56,NE,42,4.0,11.0,67,0.00,,,0.00,Wunderground v.1.13,2016-02-13 15:39:00,
2016-02-13 10:49:00,22.6,12.6,30.56,NNE,24,3.0,11.0,65,0.00,,,0.00,Wunderground v.1.13,2016-02-13 15:49:00,
2016-02-13 10:54:00,22.7,12.7,30.56,NNE,13,4.0,11.0,65,0.00,,,0.00,Wunderground v.1.13,2016-02-13 15:54:00,
2016-02-13 10:59:00,23.1,12.7,30.56,NNE,25,5.0,11.0,64,0.00,,,0.00,Wunderground v.1.13,2016-02-13 15:59:00,
2016-02-13 11:05:00,23.6,12.8,30.56,NNE,18,4.0,11.0,63,0.00,,,0.00,Wunderground v.1.13,2016-02-13 16:05:00,
2016-02-13 11:10:00,23.6,12.5,30.56,NE,41,4.0,11.0,62,0.00,,,0.00,Wunderground v.1.13,2016-02-13 16:10:00,
2016-02-13 11:15:00,23.6,12.5,30.56,North,350,4.0,11.0,62,0.00,,,0.00,Wunderground v.1.13,2016-02-13 16:15:00,
2016-02-13 11:20:00,24.0,12.9,30.56,NNW,333,4.0,12.0,62,0.00,,,0.00,Wunderground v.1.13,2016-02-13 16:20:00,
2016-02-13 11:25:00,23.8,11.9,30.56,NNW,333,6.0,6.0,60,0.00,,,0.00,Wunderground v.1.13,2016-02-13 16:25:00,
2016-02-13 11:31:00,23.7,11.4,30.56,ENE,69,7.0,11.0,59,0.00,,,0.00,Wunderground v.1.13,2016-02-13 16:31:00,
2016-02-13 11:36:00,23.6,11.4,30.56,NNE,26,5.0,11.0,59,0.00,,,0.00,Wunderground v.1.13,2016-02-13 16:36:00,
2016-02-13 11:41:00,23.6,11.7,30.56,NE,38,4.0,11.0,60,0.00,,,0.00,Wunderground v.1.13,2016-02-13 16:41:00,
2016-02-13 11:46:00,23.6,12.1,30.56,North,360,5.0,11.0,61,0.00,,,0.00,Wunderground v.1.13,2016-02-13 16:46:00,
2016-02-13 11:51:00,24.0,12.1,30.56,North,360,5.0,11.0,60,0.00,,,0.00,Wunderground v.1.13,2016-02-13 16:51:00,
2016-02-13 11:56:00,24.2,11.1,30.56,North,355,5.0,11.0,57,0.00,,,0.00,Wunderground v.1.13,2016-02-13 16:56:00,
2016-02-13 12:02:00,24.1,11.4,30.56,NNW,344,6.0,11.0,58,0.00,,,0.00,Wunderground v.1.13,2016-02-13 17:02:00,
2016-02-13 12:07:00,23.9,10.1,30.56,North,5,6.0,11.0,55,0.00,,,0.00,Wunderground v.1.13,2016-02-13 17:07:00,
2016-02-13 12:12:00,23.6,11.0,30.56,NNE,32,6.0,11.0,58,0.00,,,0.00,Wunderground v.1.13,2016-02-13 17:12:00,
2016-02-13 12:17:00,24.5,12.6,30.56,NE,51,5.0,11.0,60,0.00,,,0.00,Wunderground v.1.13,2016-02-13 17:17:00,
2016-02-13 12:23:00,24.7,11.6,30.56,North,360,3.0,11.0,57,0.00,,,0.00,Wunderground v.1.13,2016-02-13 17:23:00,
2016-02-13 12:28:00,24.9,11.0,30.56,NNW,340,4.0,11.0,55,0.00,,,0.00,Wunderground v.1.13,2016-02-13 17:28:00,
2016-02-13 12:33:00,25.0,11.1,30.55,NNE,28,6.0,11.0,55,0.00,,,0.00,Wunderground v.1.13,2016-02-13 17:33:00,
2016-02-13 12:38:00,25.3,11.4,30.56,NNE,32,5.0,11.0,55,0.00,,,0.00,Wunderground v.1.13,2016-02-13 17:38:00,
2016-02-13 12:43:00,24.9,9.7,30.55,NNW,338,5.0,11.0,52,0.00,,,0.00,Wunderground v.1.13,2016-02-13 17:43:00,
2016-02-13 12:48:00,25.0,9.4,30.55,NNE,22,5.0,11.0,51,0.00,,,0.00,Wunderground v.1.13,2016-02-13 17:48:00,
2016-02-13 12:54:00,25.0,9.8,30.55,ENE,68,4.0,11.0,52,0.00,,,0.00,Wunderground v.1.13,2016-02-13 17:54:00,
2016-02-13 12:59:00,25.3,11.0,30.54,NNE,15,4.0,11.0,54,0.00,,,0.00,Wunderground v.1.13,2016-02-13 17:59:00,
2016-02-13 13:04:00,25.5,10.3,30.54,North,355,4.0,11.0,52,0.00,,,0.00,Wunderground v.1.13,2016-02-13 18:04:00,
2016-02-13 13:09:00,26.2,11.4,30.54,NNW,348,3.0,11.0,53,0.00,,,0.00,Wunderground v.1.13,2016-02-13 18:09:00,
2016-02-13 13:15:00,27.3,12.0,30.54,NW,323,3.0,11.0,52,0.00,,,0.00,Wunderground v.1.13,2016-02-13 18:15:00,
2016-02-13 13:20:00,27.3,11.5,30.54,NW,317,5.0,5.0,51,0.00,,,0.00,Wunderground v.1.13,2016-02-13 18:20:00,
2016-02-13 13:25:00,27.6,10.4,30.54,NNW,337,5.0,11.0,48,0.00,,,0.00,Wunderground v.1.13,2016-02-13 18:25:00,
2016-02-13 13:30:00,26.9,9.8,30.54,NNW,345,5.0,5.0,48,0.00,,,0.00,Wunderground v.1.13,2016-02-13 18:30:00,
2016-02-13 13:35:00,27.3,10.2,30.53,NW,320,4.0,11.0,48,0.00,,,0.00,Wunderground v.1.13,2016-02-13 18:35:00,
2016-02-13 13:41:00,27.1,10.4,30.53,North,355,4.0,11.0,49,0.00,,,0.00,Wunderground v.1.13,2016-02-13 18:41:00,
2016-02-13 13:46:00,27.0,10.4,30.53,NNW,338,4.0,11.0,49,0.00,,,0.00,Wunderground v.1.13,2016-02-13 18:46:00,
2016-02-13 13:51:00,27.1,10.4,30.53,NNE,21,4.0,11.0,49,0.00,,,0.00,Wunderground v.1.13,2016-02-13 18:51:00,
2016-02-13 13:57:00,28.0,11.3,30.52,NNE,15,2.0,11.0,49,0.00,,,0.00,Wunderground v.1.13,2016-02-13 18:57:00,
2016-02-13 14:03:00,27.8,10.2,30.52,NW,326,2.0,11.0,47,0.00,,,0.00,Wunderground v.1.13,2016-02-13 19:03:00,
2016-02-13 14:08:00,27.8,10.6,30.51,North,350,2.0,11.0,48,0.00,,,0.00,Wunderground v.1.13,2016-02-13 19:08:00,
2016-02-13 14:13:00,28.1,10.4,30.52,North,355,2.0,11.0,47,0.00,,,0.00,Wunderground v.1.13,2016-02-13 19:13:00,
2016-02-13 14:18:00,28.3,11.1,30.52,North,360,2.0,11.0,48,0.00,,,0.00,Wunderground v.1.13,2016-02-13 19:18:00,
2016-02-13 14:23:00,28.5,10.3,30.52,North,355,2.0,11.0,46,0.00,,,0.00,Wunderground v.1.13,2016-02-13 19:23:00,
2016-02-13 14:28:00,29.0,11.7,30.52,NW,325,1.0,11.0,48,0.00,,,0.00,Wunderground v.1.13,2016-02-13 19:28:00,
2016-02-13 14:34:00,29.6,11.8,30.52,North,360,1.0,11.0,47,0.00,,,0.00,Wunderground v.1.13,2016-02-13 19:34:00,
2016-02-13 14:39:00,29.1,10.4,30.52,North,355,2.0,11.0,45,0.00,,,0.00,Wunderground v.1.13,2016-02-13 19:39:00,
2016-02-13 14:44:00,29.0,10.8,30.52,North,355,2.0,11.0,46,0.00,,,0.00,Wunderground v.1.13,2016-02-13 19:44:00,
2016-02-13 14:49:00,28.7,10.5,30.52,North,355,2.0,11.0,46,0.00,,,0.00,Wunderground v.1.13,2016-02-13 19:49:00,
2016-02-13 14:54:00,28.1,9.9,30.52,NNE,22,3.0,11.0,46,0.00,,,0.00,Wunderground v.1.13,2016-02-13 19:54:00,
2016-02-13 15:00:00,28.2,10.5,30.52,NE,34,2.0,2.0,47,0.00,,,0.00,Wunderground v.1.13,2016-02-13 20:00:00,
2016-02-13 15:05:00,28.1,9.5,30.51,NE,51,1.0,11.0,45,0.00,,,0.00,Wunderground v.1.13,2016-02-13 20:05:00,
2016-02-13 15:10:00,28.1,10.4,30.52,NNE,14,2.0,11.0,47,0.00,,,0.00,Wunderground v.1.13,2016-02-13 20:10:00,
2016-02-13 15:15:00,28.0,8.9,30.52,NE,55,3.0,3.0,44,0.00,,,0.00,Wunderground v.1.13,2016-02-13 20:15:00,
2016-02-13 15:21:00,27.7,9.1,30.52,NE,38,2.0,11.0,45,0.00,,,0.00,Wunderground v.1.13,2016-02-13 20:21:00,